User: anonymous   Login
Location: Unspecified
(0.0000°N, 0.0000°E)
Time: 19:14:32
(UTC+00:00)
Language:

STARLINK-35252 - Orbit

View from above orbital plane
View from above orbital plane
View from above satellite
View from above satellite

Ground track
Ground track

The orbit is defined by the following mean orbital elements,

1 65850U          26145.27920922 +.00000000 +00000-0 +14662-2 0 00009
2 65850  53.1578  93.0143 0000990  84.1648 275.9466 15.30240300    01
Epoch (UTC): 25 May 2026 06:42:03
Eccentricity: 0.0000990
inclination: 53.1578°
perigee height: 474 km
apogee height: 476 km
right ascension of ascending node: 93.0143°
argument of perigee: 84.1648°
revolutions per day: 15.30240300
mean anomaly at epoch: 275.9466°

The dashed part of the orbit path shows where the satellite is in the earth's shadow,  

DLR